EW3693 Weather Reports


Display with metric or nautical units.
time (UTC)temp
F
wind
direction
speed
MPH
gust
MPH
rain 1hr
in
rain 24hr
in
rain mn
in
humidity
%
barometer
mb
20260903135518 66 0 13.0 20.0 0.00 0.02 0.02 89 1012.7
20260903134538 66 0 10.0 17.0 0.01 0.02 0.02 89 1012.7
20260903133518 66 0 9.0 16.0 0.01 0.02 0.02 89 1012.6
20260903132518 65 0 11.0 18.0 0.01 0.02 0.02 90 1012.7
20260903131518 65 0 9.0 16.0 0.01 0.02 0.02 91 1012.7
20260903130518 65 0 8.0 13.0 0.01 0.02 0.02 92 1012.6
20260903124518 65 0 9.0 17.0 0.00 0.02 0.02 94 1012.8
20260903123518 64 0 8.0 13.0 0.00 0.02 0.02 94 1012.7
20260903122518 64 0 8.0 14.0 0.00 0.02 0.02 94 1012.9
20260903121518 64 0 12.0 20.0 0.00 0.02 0.02 92 1012.9
20260903120518 65 0 9.0 15.0 0.00 0.02 0.02 91 1012.9
20260903115518 65 0 9.0 16.0 0.00 0.02 0.02 88 1012.7
20260903114518 66 0 12.0 18.0 0.00 0.02 0.02 85 1012.8
20260903113520 67 0 11.0 20.0 0.00 0.02 0.02 84 1012.7
20260903112538 67 0 12.0 20.0 0.00 0.02 0.02 84 1012.8
20260903111518 67 0 11.0 18.0 0.00 0.02 0.02 85 1012.9
20260903110518 67 0 11.0 21.0 0.00 0.02 0.02 85 1013.0
20260903105538 66 0 15.0 23.0 0.00 0.02 0.02 84 1013.1
20260903104518 67 0 16.0 23.0 0.00 0.02 0.02 84 1013.3
20260903103518 66 0 12.0 19.0 0.00 0.02 0.02 84 1013.1
20260903102517 67 0 11.0 19.0 0.00 0.02 0.02 82 1013.1
20260903101518 66 0 11.0 19.0 0.00 0.02 0.02 83 1013.2
20260903100538 66 0 10.0 19.0 0.00 0.02 0.02 84 1013.4
20260903095517 66 0 8.0 15.0 0.00 0.02 0.02 84 1013.5
20260903094518 66 0 10.0 18.0 0.00 0.02 0.02 84 1013.5
20260903093538 66 0 7.0 15.0 0.00 0.02 0.02 84 1013.5
20260903092517 66 0 7.0 16.0 0.00 0.02 0.02 83 1013.5
20260903091518 66 0 9.0 16.0 0.00 0.02 0.02 83 1013.6
20260903090517 67 0 7.0 13.0 0.00 0.02 0.02 84 1013.9
20260903085517 65 0 8.0 20.0 0.00 0.02 0.02 85 1013.8
20260903084518 65 0 7.0 15.0 0.00 0.02 0.02 86 1014.1
20260903083517 64 0 10.0 18.0 0.00 0.02 0.02 86 1014.0
20260903082518 63 0 6.0 12.0 0.00 0.02 0.02 88 1014.0
20260903081558 62 0 6.0 12.0 0.00 0.02 0.02 89 1014.1
20260903080518 62 0 7.0 12.0 0.00 0.02 0.02 90 1014.1
20260903075518 62 0 7.0 16.0 0.00 0.02 0.02 89 1014.2
20260903074518 62 0 7.0 14.0 0.00 0.02 0.02 90 1014.3
20260903073517 61 0 7.0 14.0 0.00 0.02 0.02 90 1014.4
20260903072517 61 0 8.0 13.0 0.00 0.02 0.02 90 1014.5
20260903071517 61 0 9.0 16.0 0.00 0.02 0.02 89 1014.6
20260903070538 62 0 9.0 18.0 0.00 0.02 0.02 90 1014.7
20260903065537 61 0 9.0 17.0 0.00 0.02 0.02 90 1014.7
20260903064557 61 0 5.0 12.0 0.00 0.02 0.02 91 1014.9
20260903063537 61 0 6.0 13.0 0.00 0.02 0.02 92 1015.0
20260903062517 60 0 6.0 12.0 0.00 0.02 0.02 93 1015.1
20260903061517 60 0 5.0 11.0 0.00 0.02 0.02 93 1015.0
20260903060517 60 0 4.0 10.0 0.00 0.02 0.02 93 1015.1
20260903055518 59 0 5.0 11.0 0.00 0.02 0.02 94 1015.2
20260903054517 59 0 5.0 10.0 0.00 0.02 0.02 94 1015.5
20260903053517 59 0 6.0 15.0 0.00 0.02 0.02 94 1015.5
20260903052517 59 0 6.0 11.0 0.00 0.02 0.02 95 1015.7
20260903051537 59 0 5.0 11.0 0.00 0.02 0.02 95 1015.8
20260903050517 59 0 4.0 8.0 0.00 0.02 0.02 95 1015.8
20260903045517 58 0 4.0 9.0 0.01 0.02 0.02 95 1015.8
20260903044517 58 0 3.0 8.0 0.01 0.02 0.02 95 1016.0
20260903043517 58 0 4.0 8.0 0.01 0.02 0.02 95 1016.2
20260903042517 58 203 3.0 6.0 0.01 0.02 0.02 95 1016.1
20260903041517 58 203 3.0 5.0 0.01 0.02 0.02 95 1016.2
20260903040517 58 180 3.0 9.0 0.01 0.02 0.02 95 1016.3
20260903035517 58 0 4.0 8.0 0.01 0.01 0.01 94 1016.3
20260903034517 59 0 3.0 9.0 0.01 0.01 0.01 94 1016.4
20260903033537 59 203 3.0 7.0 0.01 0.01 0.01 94 1016.5
20260903032517 59 203 2.0 5.0 0.01 0.01 0.01 94 1016.5
20260903031517 59 203 2.0 6.0 0.01 0.01 0.01 94 1016.6
20260903030517 59 203 2.0 9.0 0.01 0.01 0.01 93 1016.7
20260903025517 59 203 2.0 8.0 0.00 0.00 0.00 93 1016.8
20260903024517 59 203 1.0 3.0 0.00 0.00 0.00 93 1016.8
20260903023517 59 203 1.0 2.0 0.00 0.00 0.00 92 1016.9
20260903022517 59 0 1.0 3.0 0.00 0.00 0.00 92 1017.0
20260903021517 59 225 1.0 5.0 0.00 0.00 0.00 92 1017.2
20260903020517 59 203 1.0 3.0 0.00 0.00 0.00 92 1017.3
20260903015517 59 225 1.0 3.0 0.00 0.00 0.00 92 1017.2
20260903014537 59 225 2.0 6.0 0.00 0.00 0.00 92 1017.4
20260903013517 59 0 3.0 6.0 0.00 0.00 0.00 92 1017.5
20260903012516 59 225 4.0 7.0 0.00 0.00 0.00 92 1017.5
20260903011516 59 0 3.0 6.0 0.00 0.00 0.00 92 1017.5
20260903010517 59 225 3.0 6.0 0.00 0.00 0.00 92 1017.5
20260903005536 59 225 1.0 3.0 0.00 0.00 0.00 92 1017.6
20260903004516 59 0 3.0 6.0 0.00 0.00 0.00 93 1017.6
20260903003517 59 0 3.0 6.0 0.00 0.00 0.00 93 1017.8
20260903002537 59 0 4.0 8.0 0.00 0.00 0.00 93 1017.8
20260903001516 59 0 3.0 8.0 0.00 0.00 0.00 93 1017.9
20260903000517 59 0 3.0 5.0 0.00 0.00 0.00 93 1018.0
20260902235536 59 0 2.0 5.0 0.00 0.00 0.00 93 1018.0
20260902234516 59 0 5.0 7.0 0.00 0.00 0.00 93 1018.0
20260902233536 59 0 4.0 6.0 0.00 0.00 0.00 93 1018.0
20260902232517 59 248 5.0 7.0 0.00 0.00 0.00 93 1018.2
20260902231516 59 0 4.0 5.0 0.00 0.00 0.00 92 1018.2
20260902230516 59 0 4.0 7.0 0.00 0.00 0.00 92 1018.2
20260902225516 59 248 4.0 7.0 0.00 0.00 0.00 92 1018.1
20260902224536 60 0 5.0 8.0 0.00 0.00 0.00 91 1018.2
20260902223516 60 0 4.0 5.0 0.00 0.00 0.00 90 1018.2
20260902222518 61 0 4.0 8.0 0.00 0.00 0.00 89 1018.2
20260902221518 60 0 4.0 8.0 0.00 0.00 0.00 90 1018.2
20260902220518 60 0 3.0 5.0 0.00 0.00 0.00 91 1018.2
20260902215518 60 225 2.0 4.0 0.00 0.00 0.00 91 1018.2
20260902214518 60 0 1.0 3.0 0.00 0.00 0.00 90 1018.2
20260902213518 61 248 2.0 3.0 0.00 0.00 0.00 90 1018.3
20260902212518 61 248 2.0 3.0 0.00 0.00 0.00 90 1018.2
20260902211518 61 0 3.0 4.0 0.00 0.00 0.00 90 1018.2
20260902210517 61 248 1.0 2.0 0.00 0.00 0.00 90 1018.2
20260902205518 61 248 2.0 3.0 0.00 0.00 0.00 89 1018.2
20260902204518 61 0 3.0 4.0 0.00 0.00 0.00 89 1018.2
20260902203518 61 0 2.0 3.0 0.00 0.00 0.00 90 1018.2
20260902202538 61 0 2.0 3.0 0.00 0.00 0.00 90 1018.3
20260902201518 61 0 3.0 4.0 0.00 0.00 0.00 90 1018.3
20260902200538 61 270 3.0 4.0 0.00 0.00 0.00 89 1018.3
20260902195518 62 0 3.0 4.0 0.00 0.00 0.00 88 1018.3
20260902194518 62 270 4.0 6.0 0.00 0.00 0.00 87 1018.3
20260902193518 62 0 3.0 5.0 0.00 0.00 0.00 86 1018.2
20260902192518 63 0 5.0 7.0 0.00 0.00 0.00 85 1018.3
20260902191518 63 0 4.0 6.0 0.00 0.00 0.00 85 1018.3
20260902190518 63 0 4.0 6.0 0.00 0.00 0.00 85 1018.4
20260902185518 62 0 4.0 6.0 0.00 0.00 0.00 86 1018.3
20260902184518 63 0 3.0 4.0 0.00 0.00 0.00 86 1018.2
20260902183518 63 270 4.0 6.0 0.00 0.00 0.00 85 1018.1
20260902182538 63 0 4.0 6.0 0.00 0.00 0.00 84 1017.9
20260902181518 62 0 9.0 12.0 0.00 0.00 0.00 83 1017.8
20260902180538 63 225 2.0 3.0 0.00 0.00 0.00 83 1017.6
20260902175538 63 225 1.0 3.0 0.00 0.00 0.00 80 1017.6
20260902174518 64 0 2.0 4.0 0.00 0.00 0.00 79 1017.5
20260902173518 64 0 2.0 3.0 0.00 0.00 0.00 80 1017.6
20260902172518 64 0 3.0 4.0 0.00 0.00 0.00 79 1017.7
20260902171518 65 0 4.0 5.0 0.00 0.00 0.00 77 1017.7
20260902170518 65 0 4.0 6.0 0.00 0.00 0.00 77 1017.8
20260902165518 66 0 4.0 8.0 0.00 0.00 0.00 74 1017.8
20260902164518 68 0 7.0 10.0 0.00 0.00 0.00 69 1017.7
20260902163517 69 0 8.0 10.0 0.00 0.00 0.00 67 1017.6
20260902162518 70 0 8.0 11.0 0.00 0.00 0.00 65 1017.7
20260902161537 70 0 6.0 12.0 0.00 0.00 0.00 62 1017.8
20260902160518 70 0 7.0 10.0 0.00 0.00 0.00 65 1017.8
20260902155517 71 0 9.0 12.0 0.00 0.00 0.00 63 1017.8
20260902154518 71 0 10.0 14.0 0.00 0.00 0.00 64 1017.9
20260902153518 72 0 8.0 14.0 0.00 0.00 0.00 62 1017.9
20260902152517 72 0 11.0 15.0 0.00 0.00 0.00 61 1017.9
20260902151518 73 0 9.0 13.0 0.00 0.00 0.00 60 1017.9
20260902150517 73 0 9.0 13.0 0.00 0.00 0.00 62 1018.0
20260902145517 73 0 10.0 14.0 0.00 0.00 0.00 58 1018.1
20260902144517 73 0 8.0 12.0 0.00 0.00 0.00 60 1018.1
20260902143517 74 0 10.0 16.0 0.00 0.00 0.00 61 1018.1
20260902142517 73 0 11.0 15.0 0.00 0.00 0.00 63 1018.2
20260902141518 74 0 11.0 15.0 0.00 0.00 0.00 61 1018.3
20260902140537 74 0 10.0 14.0 0.00 0.00 0.00 61 1018.3